NWWWNVVV

Guest
Details From NWWW - Noumea La Tontouta
To NVVV - Bauerfield
Flight Number -
Tags generated
Created
Modified
Stats Distance 285 nm / 529 km
Max Altitude 25,800 ft / 7,864 m
Waypoints 5
Social Downloads 3
Likes 0
Share VATSIM

Download

Looking for another format? Having issues loading an existing format? Contact us
Advertisement - Login to hide

Notes

Basic altitude profile: - Ascent Rate: 2500ft/min - Ascent Speed: 250kts - Cruise Altitude: 35000ft - Cruise Speed: 420kts - Descent Rate: 1500ft/min - Descent Speed: 250kts

Route

NWWW LTO B590 LEDIT NVVV

ID Type Via Altitude Latitude Longitude Leg Dist Tot Dist Heading (true) Name
O NWWW APT - 0 ft / 0 m -22.01453˚ 166.21302˚ - 0 nm - Noumea La Tontouta
LTO VOR - 200 ft / 61 m -22.00511˚ 166.21178˚ 0 nm 0 nm 353° / 353° LA TONTOUTA VOR-DME
NIPOG FIX B590 (AWY-HI) 25,800 ft / 7,864 m -19.50000˚ 167.39333˚ 164 nm 165 nm 24° / 24° -
LEDIT FIX B590 (AWY-HI) 19,000 ft / 5,791 m -18.54500˚ 167.83667˚ 62 nm 227 nm 24° / 24° -
O NVVV APT - 0 ft / 0 m -17.69818˚ 168.31754˚ 57 nm 285 nm 28° / 28° Bauerfield

Altitude Profile

Advertisement - Login to hide

Weather


0- 5 10 15 20 25 30 35+ Temperature / ° C

Clouds and Precipitation
Forecast for 2018-05-25 06:00 UTC. Updated 3 hours ago

Ground ~20,000 ft ~40,000 ft Winds

NWWW

Details ICAO NWWW (NOU)
Name Noumea La Tontouta
Region New Caledonia
Timezone Pacific/Noumea (UTC+11.0)
Stats Elevation 51 ft / 16 m (AMSL)
Location -22.014529° 166.213022°
Runways 1
Magnetic Variation 12.347° E

METAR

NWWW 250800Z AUTO 19004KT 9999 FEW039 BKN190 BKN230 21/17 Q1017 NOSIG

Decode

TAF

TAF NWWW 250500Z 2506/2606 17012KT 9999 SCT035 BECMG 2506/2508 VRB02KT BECMG 2523/2601 15018KT TEMPO 2601/2606 15020G30KT

Decode

Departure Runways

ID Width Length Bearing (true) Bearing (mag) Surface Threshold Offset Overrun Length
11 148 ft / 45 m 10,666 ft / 3,251 m 121.21° 108.86° Asphalt 0 ft / 0 m 338 ft / 103 m
29 148 ft / 45 m 10,666 ft / 3,251 m 301.19° 288.84° Asphalt 0 ft / 0 m 354 ft / 108 m

NVVV

Details ICAO NVVV (VLI)
Name Bauerfield
Region Vanuatu
Timezone Pacific/Efate (UTC+11.0)
Stats Elevation 70 ft / 21 m (AMSL)
Location -17.698183° 168.317539°
Runways 1
Magnetic Variation 11.560° E

METAR

Not found

TAF

TAF NVVV 250430Z 2506/2606 11009KT 9999 SCT020 BKN100 INTER 2506/2512 9000 -SHRA BKN018

Decode

Destination Runways

ID Width Length Bearing (true) Bearing (mag) Surface Threshold Offset Overrun Length
11 148 ft / 45 m 8,531 ft / 2,600 m 118.01° 106.45° Asphalt 0 ft / 0 m 197 ft / 60 m
29 148 ft / 45 m 8,531 ft / 2,600 m 298.01° 286.45° Asphalt 0 ft / 0 m 197 ft / 60 m

Approach Navaids

Runway Type Ident Frequency Range Bearing (true) Bearing (mag) Slope Elevation
11 Localiser IBF 110.70 MHz 18 nm / 33 km 117.54° 105.98° - 10 ft / 3 m (AMSL)
11 DME IBF 110.70 MHz 18 nm / 33 km - - - 13 ft / 4 m (AMSL)

Popular Alternatives